IMECE

导读

IMECE是土耳其首颗本土自主研发的高分辨率地球观测卫星,于当地时间2023年4月15日在美国范登堡空军基地发射升空,由土耳其科学技术研究理事会空间技术研究所研制,飞行计算机、通信系统以及高分辨率电子光学相机等关键部件均实现自主研发。 卫星运行在约700公里轨道,设计任务寿命5年,可对全球进行高分辨率成像,服务于目标识别、自然灾害管理、农业应用等领域,标志着土耳其具备自主研制先进观测卫星的航天能力。

Basic Information
目录编号:
56178
目录名称:
IMECE
国际标识:
2023-054A
轨道中心:
EARTH
卫星名称:
IMECE
卫星全名:
--
卫星状态:
在轨 (已飞行1247 天)
发射日期:
2023-04-15 UTC
国别 :
土耳其 (TR)
星等 :
--
This satellite is enrolled in the Space Conjunction Data Service (SCDS) and the current flight risk assessment level is: No High Risk
Orbit Information
数据来源 国际轨道数据
星历时间: 2026-09-13T08:06:13+0800
6小时前
查看轨道信息
半长轴: 7052.34km
偏心率: 0.0008295
轨道倾角: 98.112°
近地点辐角 251.654°
升交点赤经 159.804°
平近点角 108.376°
近地点: 668.353km
远地点: 680.053km
周期: 98.233分钟
每日圈数: 14.658954
Detailed Information
使用方式:
暂无
2D Orbit Map
3D Orbit Map
Orbit Altitude Analysis Chart
Orbit Inclination Analysis Chart
Orbit Comprehensive Analysis Chart
View Comprehensive Chart
Conjunction Data List
Event ID Objects TCA Miss Dist (km) Collision Risk Probability Collision Risk Index (CRI) Action
CDM_260906-021103-624705-617823
IMECE (56178)
2026-09-06T
02:11:20+0000
2.997 km
极远距离
1.169868E-6 低风险 0.36
CDM_260905-185503-931505-617822
IMECE (56178)
2026-09-05T
18:55:55+0000
2.526 km
极远距离
1.152233E-6 低风险 0.36
Miss Distance Evolution Trend with All Objects
Collision Probability Evolution Trend with All Objects